Погода в Средней Ахтубе

Россия / Волгоградская область     48°42′48″N   44°51′36″E
темп.,
°C
ветер,
м/с
пор.,
м/с
влажн.,
%
обл.,
%
осадки,
мм/ч
давл.,
гПа
погр.,
м
2 декабря, чт
чт200:00+1юз4975100 0.0 1005407
03:00+1ююз2499100 1.7 1005145
06:00+1зюз4895100 0.5 1007631
09:00+2з5973100 0.6 10111024
12:00+3з596899 0.0 10131272
15:00+3зюз696942 0.0 10151008
18:00+1зюз49776 0.0 1017538
21:00+1юз411785 0.0 1018472
3 декабря, пт
пт300:00+1ююз498247 0.0 1018278
03:00+2ююз4118499 0.0 1018298
06:00+3ююз5138688 0.0 1018353
09:00+4юз5148497 0.0 1019503
12:00+7юз6146472 0.0 1019605
15:00+7ююз51162100 0.0 1020458
18:00+5ю41272100 0.0 1020363
21:00+4ю51373100 0.0 1020379
4 декабря, сб
сб400:00+4ю4128698 0.0 1020350
03:00+3ю4129512 0.0 1019342
06:00+3ю5139531 0.0 1018343
09:00+4ю51389100 0.0 1017354
12:00+6ю51180100 0.0 1016358
15:00+6ю51374100 0.0 1015407
18:00+7ю41172100 0.3 1015333
21:00+7ю41068100 0.4 1015250
5 декабря, вс
вс500:00+6з3874100 0.1 1015266
03:00+5с3592100 0.5 1016262
06:00+4ссв4690100 0.3 1017255
09:00+4св3591100 0.8 1018264
12:00+4св3493100 0.5 1018240
15:00+4св5792100 0.8 1018308
18:00+3св5891100 0.1 1019355
21:00+3всв4791100 0.3 1020301
6 декабря, пн
пн600:00+4всв3592100 0.1 1020215
03:00+4всв3694100 0.3 1021220
06:00+4всв3694100 0.1 1022254
09:00+5в3695100 0.2 1023235
12:00+6вюв2495100 0.0 1023198
15:00+7в2293100 0.0 102366
18:00+7вюв2495100 0.0 102589
21:00+6юв2494100 0.0 102695